| time (UTC) | temp F | wind direction | speed knots | gust knots | rain 1hr in | rain 24hr in | rain mn in | humidity % | barometer mb |
| 20260505012003 | 56 | 259 | 2.6 | 6.1 | 0.00 | 0.00 | 0.00 | 62 | 1007.4 |
| 20260505011508 | 55 | 257 | 1.7 | 6.1 | 0.00 | 0.00 | 0.00 | 65 | 1007.4 |
| 20260505011002 | 54 | 247 | 2.6 | 6.1 | 0.00 | 0.00 | 0.00 | 68 | 1007.3 |
| 20260505010505 | 53 | 233 | 0.9 | 5.2 | 0.00 | 0.00 | 0.00 | 70 | 1007.3 |
| 20260505010011 | 52 | 204 | 1.7 | 6.1 | 0.00 | 0.00 | 0.00 | 71 | 1007.3 |
| 20260505005504 | 52 | 245 | 1.7 | 6.1 | 0.00 | 0.00 | 0.00 | 72 | 1007.2 |
| 20260505005004 | 52 | 226 | 2.6 | 5.2 | 0.00 | 0.00 | 0.00 | 73 | 1007.0 |
| 20260505004518 | 51 | 232 | 3.5 | 5.2 | 0.00 | 0.00 | 0.00 | 73 | 1007.0 |
| 20260505004008 | 51 | 221 | 2.6 | 5.2 | 0.00 | 0.00 | 0.00 | 73 | 1006.9 |
| 20260505003507 | 51 | 204 | 0.9 | 4.3 | 0.00 | 0.00 | 0.00 | 73 | 1006.9 |
| 20260505003022 | 51 | 205 | 0.9 | 5.2 | 0.00 | 0.00 | 0.00 | 73 | 1006.8 |
| 20260505002508 | 51 | 226 | 1.7 | 5.2 | 0.00 | 0.00 | 0.00 | 73 | 1006.8 |
| 20260505002007 | 52 | 234 | 2.6 | 5.2 | 0.00 | 0.00 | 0.00 | 72 | 1006.7 |
| 20260505001525 | 52 | 224 | 1.7 | 5.2 | 0.00 | 0.00 | 0.00 | 72 | 1006.7 |
| 20260505001008 | 52 | 218 | 1.7 | 4.3 | 0.00 | 0.00 | 0.00 | 71 | 1006.5 |
| 20260505000503 | 52 | 195 | 1.7 | 4.3 | 0.00 | 0.00 | 0.00 | 71 | 1006.4 |
| 20260505000013 | 52 | 204 | 1.7 | 7.0 | 0.00 | 0.00 | 0.00 | 69 | 1006.3 |
| 20260504235504 | 53 | 212 | 1.7 | 7.0 | 0.00 | 0.00 | 0.00 | 66 | 1006.2 |
| 20260504235008 | 56 | 191 | 2.6 | 5.2 | 0.00 | 0.00 | 0.00 | 57 | 1006.2 |
| 20260504234517 | 61 | 190 | 2.6 | 4.3 | 0.00 | 0.00 | 0.00 | 52 | 1006.1 |
| 20260504234011 | 67 | 153 | 0.9 | 2.6 | 0.00 | 0.00 | 0.00 | 44 | 1006.1 |
| 20260504233507 | 69 | 222 | 0.9 | 3.5 | 0.00 | 0.00 | 0.00 | 33 | 1006.0 |
| 20260504233022 | 69 | 221 | 0.9 | 3.5 | 0.00 | 0.00 | 0.00 | 33 | 1005.9 |
| 20260504232508 | 69 | 216 | 0.0 | 4.3 | 0.00 | 0.00 | 0.00 | 33 | 1005.9 |
| 20260504232008 | 69 | 233 | 1.7 | 4.3 | 0.00 | 0.00 | 0.00 | 33 | 1005.8 |
| 20260504231523 | 70 | 259 | 1.7 | 5.2 | 0.00 | 0.00 | 0.00 | 33 | 1005.8 |
| 20260504231007 | 70 | 238 | 0.9 | 5.2 | 0.00 | 0.00 | 0.00 | 33 | 1005.6 |
| 20260504230509 | 70 | 305 | 1.7 | 7.0 | 0.00 | 0.00 | 0.00 | 32 | 1005.6 |
| 20260504230027 | 70 | 235 | 2.6 | 7.0 | 0.00 | 0.00 | 0.00 | 33 | 1005.6 |
| 20260504225508 | 70 | 320 | 0.9 | 3.5 | 0.00 | 0.00 | 0.00 | 33 | 1005.5 |
| 20260504225002 | 70 | 335 | 0.9 | 6.1 | 0.00 | 0.00 | 0.00 | 33 | 1005.5 |
| 20260504224512 | 70 | 302 | 0.9 | 6.1 | 0.00 | 0.00 | 0.00 | 33 | 1005.4 |
| 20260504224004 | 70 | 311 | 1.7 | 5.2 | 0.00 | 0.00 | 0.00 | 32 | 1005.4 |
| 20260504223507 | 70 | 301 | 0.9 | 5.2 | 0.00 | 0.00 | 0.00 | 32 | 1005.4 |
| 20260504223018 | 70 | 273 | 1.7 | 11.3 | 0.00 | 0.00 | 0.00 | 31 | 1005.4 |
| 20260504222508 | 71 | 339 | 2.6 | 11.3 | 0.00 | 0.00 | 0.00 | 31 | 1005.3 |
| 20260504222010 | 71 | 355 | 2.6 | 9.6 | 0.00 | 0.00 | 0.00 | 31 | 1005.3 |
| 20260504221523 | 71 | 350 | 1.7 | 7.8 | 0.00 | 0.00 | 0.00 | 31 | 1005.2 |
| 20260504221009 | 71 | 222 | 3.5 | 7.8 | 0.00 | 0.00 | 0.00 | 30 | 1005.2 |
| 20260504220510 | 71 | 297 | 1.7 | 7.0 | 0.00 | 0.00 | 0.00 | 31 | 1005.3 |
| 20260504220025 | 71 | 295 | 1.7 | 7.0 | 0.00 | 0.00 | 0.00 | 31 | 1005.3 |
| 20260504215509 | 71 | 321 | 2.6 | 7.0 | 0.00 | 0.00 | 0.00 | 32 | 1005.3 |
| 20260504215011 | 71 | 259 | 0.9 | 7.0 | 0.00 | 0.00 | 0.00 | 32 | 1005.2 |
| 20260504214528 | 71 | 240 | 3.5 | 8.7 | 0.00 | 0.00 | 0.00 | 32 | 1005.3 |
| 20260504214007 | 71 | 222 | 2.6 | 8.7 | 0.00 | 0.00 | 0.00 | 32 | 1005.2 |
| 20260504213514 | 71 | 320 | 3.5 | 8.7 | 0.00 | 0.00 | 0.00 | 32 | 1005.2 |
| 20260504213020 | 71 | 350 | 2.6 | 8.7 | 0.00 | 0.00 | 0.00 | 31 | 1005.1 |
| 20260504212508 | 72 | 315 | 2.6 | 8.7 | 0.00 | 0.00 | 0.00 | 31 | 1005.1 |
| 20260504212011 | 72 | 317 | 2.6 | 9.6 | 0.00 | 0.00 | 0.00 | 31 | 1005.1 |
| 20260504211521 | 72 | 254 | 3.5 | 9.6 | 0.00 | 0.00 | 0.00 | 30 | 1005.1 |
| 20260504211009 | 72 | 245 | 0.9 | 8.7 | 0.00 | 0.00 | 0.00 | 31 | 1005.2 |
| 20260504210509 | 73 | 323 | 1.7 | 10.4 | 0.00 | 0.00 | 0.00 | 30 | 1005.2 |
| 20260504210034 | 73 | 228 | 5.2 | 10.4 | 0.00 | 0.00 | 0.00 | 30 | 1005.2 |
| 20260504205508 | 73 | 234 | 1.7 | 10.4 | 0.00 | 0.00 | 0.00 | 30 | 1005.2 |
| 20260504205007 | 73 | 136 | 1.7 | 10.4 | 0.00 | 0.00 | 0.00 | 31 | 1005.2 |
| 20260504204532 | 73 | 235 | 3.5 | 9.6 | 0.00 | 0.00 | 0.00 | 30 | 1005.1 |
| 20260504204010 | 74 | 334 | 4.3 | 10.4 | 0.00 | 0.00 | 0.00 | 30 | 1005.1 |
| 20260504203510 | 73 | 328 | 3.5 | 10.4 | 0.00 | 0.00 | 0.00 | 30 | 1005.1 |
| 20260504203027 | 73 | 305 | 2.6 | 16.5 | 0.00 | 0.00 | 0.00 | 30 | 1005.1 |
| 20260504202505 | 73 | 215 | 5.2 | 16.5 | 0.00 | 0.00 | 0.00 | 30 | 1005.1 |
| 20260504202004 | 73 | 242 | 2.6 | 9.6 | 0.00 | 0.00 | 0.00 | 31 | 1005.1 |
| 20260504201517 | 73 | 284 | 2.6 | 14.8 | 0.00 | 0.00 | 0.00 | 31 | 1005.0 |
| 20260504201008 | 73 | 257 | 5.2 | 14.8 | 0.00 | 0.00 | 0.00 | 30 | 1005.1 |
| 20260504200508 | 73 | 350 | 3.5 | 11.3 | 0.00 | 0.00 | 0.00 | 31 | 1005.2 |
| 20260504200022 | 73 | 237 | 3.5 | 10.4 | 0.00 | 0.00 | 0.00 | 30 | 1005.2 |
| 20260504195509 | 73 | 257 | 4.3 | 13.0 | 0.00 | 0.00 | 0.00 | 31 | 1005.3 |
| 20260504195006 | 72 | 263 | 6.1 | 13.0 | 0.00 | 0.00 | 0.00 | 31 | 1005.3 |
| 20260504194526 | 72 | 317 | 3.5 | 13.0 | 0.00 | 0.00 | 0.00 | 31 | 1005.3 |
| 20260504194012 | 72 | 54 | 5.2 | 13.0 | 0.00 | 0.00 | 0.00 | 30 | 1005.3 |
| 20260504193512 | 72 | 295 | 2.6 | 11.3 | 0.00 | 0.00 | 0.00 | 31 | 1005.2 |
| 20260504193028 | 72 | 299 | 2.6 | 10.4 | 0.00 | 0.00 | 0.00 | 31 | 1005.2 |
| 20260504192510 | 71 | 257 | 2.6 | 10.4 | 0.00 | 0.00 | 0.00 | 32 | 1005.3 |
| 20260504192009 | 71 | 329 | 3.5 | 7.8 | 0.00 | 0.00 | 0.00 | 32 | 1005.3 |
| 20260504191515 | 70 | 205 | 1.7 | 8.7 | 0.00 | 0.00 | 0.00 | 33 | 1005.4 |
| 20260504191011 | 69 | 204 | 4.3 | 9.6 | 0.00 | 0.00 | 0.00 | 33 | 1005.4 |
| 20260504190506 | 68 | 276 | 4.3 | 9.6 | 0.00 | 0.00 | 0.00 | 33 | 1005.4 |
| 20260504190019 | 68 | 237 | 2.6 | 9.6 | 0.00 | 0.00 | 0.00 | 33 | 1005.4 |
| 20260504185507 | 68 | 323 | 2.6 | 13.0 | 0.00 | 0.00 | 0.00 | 33 | 1005.5 |
| 20260504185009 | 68 | 242 | 3.5 | 13.0 | 0.00 | 0.00 | 0.00 | 33 | 1005.6 |
| 20260504184524 | 68 | 251 | 3.5 | 10.4 | 0.00 | 0.00 | 0.00 | 33 | 1005.6 |
| 20260504184007 | 68 | 208 | 4.3 | 8.7 | 0.00 | 0.00 | 0.00 | 33 | 1005.5 |
| 20260504183514 | 68 | 296 | 1.7 | 9.6 | 0.00 | 0.00 | 0.00 | 33 | 1005.5 |
| 20260504183023 | 68 | 265 | 2.6 | 9.6 | 0.00 | 0.00 | 0.00 | 32 | 1005.5 |
| 20260504182513 | 69 | 170 | 2.6 | 11.3 | 0.00 | 0.00 | 0.00 | 33 | 1005.5 |
| 20260504182013 | 69 | 330 | 4.3 | 13.9 | 0.00 | 0.00 | 0.00 | 32 | 1005.4 |
| 20260504181526 | 69 | 228 | 6.1 | 13.9 | 0.00 | 0.00 | 0.00 | 31 | 1005.4 |
| 20260504181011 | 69 | 250 | 2.6 | 11.3 | 0.00 | 0.00 | 0.00 | 32 | 1005.5 |
| 20260504180512 | 69 | 261 | 3.5 | 12.2 | 0.00 | 0.00 | 0.00 | 32 | 1005.5 |
| 20260504180020 | 68 | 252 | 4.3 | 12.2 | 0.00 | 0.00 | 0.00 | 32 | 1005.5 |
| 20260504175511 | 68 | 317 | 3.5 | 10.4 | 0.00 | 0.00 | 0.00 | 31 | 1005.5 |
| 20260504175007 | 69 | 257 | 4.3 | 10.4 | 0.00 | 0.00 | 0.00 | 31 | 1005.4 |
| 20260504174523 | 69 | 226 | 5.2 | 13.0 | 0.00 | 0.00 | 0.00 | 31 | 1005.5 |
| 20260504174008 | 69 | 257 | 6.1 | 13.9 | 0.00 | 0.00 | 0.00 | 30 | 1005.5 |
| 20260504173504 | 70 | 319 | 4.3 | 13.9 | 0.00 | 0.00 | 0.00 | 30 | 1005.4 |
| 20260504173006 | 71 | 257 | 2.6 | 13.0 | 0.00 | 0.00 | 0.00 | 30 | 1005.3 |
| 20260504172504 | 71 | 253 | 4.3 | 11.3 | 0.00 | 0.00 | 0.00 | 29 | 1005.4 |
| 20260504172004 | 71 | 256 | 6.1 | 11.3 | 0.00 | 0.00 | 0.00 | 30 | 1005.4 |
| 20260504171512 | 71 | 205 | 6.1 | 13.0 | 0.00 | 0.00 | 0.00 | 30 | 1005.4 |
| 20260504171009 | 70 | 334 | 5.2 | 13.0 | 0.00 | 0.00 | 0.00 | 29 | 1005.5 |
| 20260504170506 | 71 | 253 | 3.5 | 13.9 | 0.00 | 0.00 | 0.00 | 31 | 1005.5 |
| 20260504151006 | 65 | 225 | 3.5 | 9.6 | 0.00 | 0.00 | 0.00 | 41 | 1006.7 |
| 20260504150508 | 65 | 222 | 4.3 | 9.6 | 0.00 | 0.00 | 0.00 | 41 | 1006.7 |
| 20260504141007 | 61 | 271 | 2.6 | 13.9 | 0.00 | 0.00 | 0.00 | 43 | 1007.7 |
| 20260504140503 | 61 | 251 | 7.8 | 13.9 | 0.00 | 0.00 | 0.00 | 42 | 1007.9 |
| 20260504130509 | 57 | 305 | 2.6 | 6.1 | 0.00 | 0.00 | 0.00 | 50 | 1008.4 |
| 20260504110508 | 48 | 231 | 2.6 | 7.0 | 0.00 | 0.00 | 0.00 | 56 | 1009.1 |
| 20260504100508 | 43 | 268 | 1.7 | 3.5 | 0.00 | 0.00 | 0.00 | 59 | 1009.0 |
| 20260504082003 | 42 | 249 | 0.9 | 6.1 | 0.00 | 0.00 | 0.00 | 59 | 1009.0 |
| 20260504081511 | 42 | 247 | 1.7 | 6.1 | 0.00 | 0.00 | 0.00 | 60 | 1008.9 |
| 20260504081007 | 42 | 304 | 0.9 | 5.2 | 0.00 | 0.00 | 0.00 | 60 | 1009.0 |
| 20260504080507 | 41 | 267 | 0.9 | 5.2 | 0.00 | 0.00 | 0.00 | 61 | 1008.9 |
| 20260504050511 | 42 | 257 | 1.7 | 5.2 | 0.00 | 0.00 | 0.00 | 59 | 1008.8 |
| 20260504045506 | 42 | 253 | 1.7 | 4.3 | 0.00 | 0.00 | 0.00 | 59 | 1008.6 |
| 20260504045007 | 42 | 232 | 1.7 | 5.2 | 0.00 | 0.00 | 0.00 | 59 | 1008.6 |
| 20260504044528 | 42 | 241 | 0.9 | 5.2 | 0.00 | 0.00 | 0.00 | 59 | 1008.6 |
| 20260504044007 | 42 | 266 | 1.7 | 5.2 | 0.00 | 0.00 | 0.00 | 59 | 1008.7 |
| 20260504043507 | 42 | 252 | 1.7 | 5.2 | 0.00 | 0.00 | 0.00 | 60 | 1008.7 |
| 20260504043016 | 42 | 216 | 1.7 | 5.2 | 0.00 | 0.00 | 0.00 | 60 | 1008.7 |
| 20260504042508 | 42 | 261 | 0.9 | 3.5 | 0.00 | 0.00 | 0.00 | 60 | 1008.7 |
| 20260504042008 | 41 | 260 | 1.7 | 3.5 | 0.00 | 0.00 | 0.00 | 61 | 1008.7 |
| 20260504041537 | 41 | 248 | 1.7 | 2.6 | 0.00 | 0.00 | 0.00 | 61 | 1008.7 |
| 20260504041006 | 41 | 244 | 0.9 | 2.6 | 0.00 | 0.00 | 0.00 | 61 | 1008.6 |
| 20260504040509 | 42 | 296 | 0.0 | 1.7 | 0.00 | 0.00 | 0.00 | 61 | 1008.6 |
| 20260504040025 | 42 | 271 | 0.0 | 2.6 | 0.00 | 0.00 | 0.00 | 60 | 1008.5 |
| 20260504035507 | 42 | 251 | 0.9 | 2.6 | 0.00 | 0.00 | 0.00 | 60 | 1008.5 |
| 20260504035009 | 42 | 226 | 0.9 | 2.6 | 0.00 | 0.00 | 0.00 | 60 | 1008.4 |
| 20260504034528 | 42 | 236 | 0.9 | 1.7 | 0.00 | 0.00 | 0.00 | 59 | 1008.3 |
| 20260504034008 | 42 | 242 | 0.0 | 1.7 | 0.00 | 0.00 | 0.00 | 58 | 1008.2 |
| 20260504033507 | 43 | 258 | 0.9 | 2.6 | 0.00 | 0.00 | 0.00 | 58 | 1008.2 |
| 20260504033028 | 43 | 257 | 0.9 | 2.6 | 0.00 | 0.00 | 0.00 | 57 | 1008.2 |
| 20260504032515 | 43 | 244 | 0.9 | 5.2 | 0.00 | 0.00 | 0.00 | 57 | 1008.2 |
| 20260504032006 | 43 | 267 | 0.9 | 5.2 | 0.00 | 0.00 | 0.00 | 57 | 1008.2 |
| 20260504031518 | 43 | 236 | 0.9 | 2.6 | 0.00 | 0.00 | 0.00 | 56 | 1008.2 |
| 20260504031008 | 44 | 267 | 0.9 | 2.6 | 0.00 | 0.00 | 0.00 | 56 | 1008.1 |
| 20260504030507 | 44 | 238 | 0.9 | 4.3 | 0.00 | 0.00 | 0.00 | 56 | 1008.3 |
| 20260504030021 | 44 | 243 | 0.9 | 4.3 | 0.00 | 0.00 | 0.00 | 55 | 1008.3 |
| 20260504025509 | 44 | 246 | 1.7 | 3.5 | 0.00 | 0.00 | 0.00 | 55 | 1008.2 |
| 20260504025010 | 44 | 273 | 0.9 | 3.5 | 0.00 | 0.01 | 0.00 | 56 | 1008.3 |
| 20260504024526 | 44 | 286 | 0.9 | 2.6 | 0.00 | 0.01 | 0.00 | 56 | 1008.3 |
| 20260504024010 | 43 | 304 | 0.9 | 2.6 | 0.00 | 0.01 | 0.00 | 56 | 1008.2 |
| 20260504023505 | 43 | 328 | 0.0 | 1.7 | 0.00 | 0.02 | 0.00 | 56 | 1008.2 |
| 20260504023011 | 43 | 303 | 0.0 | 1.7 | 0.00 | 0.02 | 0.00 | 56 | 1008.1 |
| 20260504022504 | 44 | 239 | 0.9 | 2.6 | 0.00 | 0.02 | 0.00 | 56 | 1008.1 |
| 20260504022004 | 44 | 282 | 0.9 | 2.6 | 0.00 | 0.02 | 0.00 | 56 | 1008.0 |
| 20260504021514 | 44 | 267 | 0.0 | 1.7 | 0.00 | 0.02 | 0.00 | 55 | 1008.0 |
| 20260504021005 | 44 | 236 | 0.0 | 1.7 | 0.00 | 0.02 | 0.00 | 55 | 1007.9 |
| 20260504020508 | 44 | 267 | 0.0 | 1.7 | 0.00 | 0.02 | 0.00 | 55 | 1008.0 |
| 20260504020034 | 44 | 244 | 0.0 | 3.5 | 0.00 | 0.02 | 0.00 | 54 | 1008.1 |
| 20260504015508 | 44 | 257 | 0.9 | 3.5 | 0.00 | 0.02 | 0.00 | 54 | 1008.1 |
| 20260504015002 | 45 | 228 | 0.0 | 3.5 | 0.00 | 0.02 | 0.00 | 54 | 1008.1 |
| 20260504014503 | 45 | 236 | 0.9 | 3.5 | 0.00 | 0.02 | 0.00 | 53 | 1008.2 |
| 20260504014006 | 45 | 304 | 0.0 | 2.6 | 0.00 | 0.02 | 0.00 | 53 | 1008.2 |
| 20260504013508 | 45 | 262 | 0.9 | 2.6 | 0.00 | 0.02 | 0.00 | 53 | 1008.1 |
| 20260504013006 | 45 | 249 | 0.0 | 1.7 | 0.00 | 0.02 | 0.00 | 53 | 1008.0 |
| 20260504012508 | 45 | 261 | 0.0 | 1.7 | 0.00 | 0.02 | 0.00 | 52 | 1008.0 |